QPF
0.00 0.00 0.00 0.00 0.00 0.00 0.00 0.00 0.00 0.00 0.00 0.00 0.00 0.00 0.01 0.01 0.01 0.02 0.02 0.02 0.03 0.03 0.03 0.03 0.03 0.02 0.02 0.02 0.02 0.04 0.05 0.05 0.04 0.03 0.01 0.01 0.01 0.02 0.01 0.00 0.00 0.00 0.00
0.00 0.00 0.00 0.00 0.00 0.00 0.00 0.00 0.00 0.00 0.00 0.00 0.00 0.00 0.00 0.00 0.00 0.01 0.01 0.01 0.02 0.02 0.03 0.03 0.03 0.03 0.02 0.02 0.02 0.02 0.03 0.04 0.05 0.06 0.03 0.01 0.01 0.02 0.02 0.02 0.00 0.01 0.01
0.00 0.00 0.00 0.00 0.00 0.00 0.00 0.00 0.00 0.00 0.00 0.00 0.00 0.00 0.00 0.00 0.00 0.00 0.00 0.00 0.01 0.01 0.01 0.02 0.02 0.02 0.02 0.02 0.01 0.01 0.02 0.02 0.03 0.06 0.05 0.01 0.00 0.01 0.03 0.03 0.01 0.03 0.05
0.00 0.00 0.00 0.00 0.00 0.00 0.00 0.00 0.00 0.00 0.00 0.00 0.00 0.00 0.00 0.00 0.00 0.00 0.00 0.00 0.00 0.00 0.00 0.01 0.01 0.01 0.01 0.01 0.01 0.01 0.01 0.02 0.02 0.04 0.03 0.01 0.00 0.01 0.04 0.05 0.02 0.03 0.06
0.00 0.00 0.00 0.00 0.00 0.00 0.00 0.00 0.00 0.00 0.00 0.00 0.00 0.00 0.00 0.00 0.00 0.00 0.00 0.00 0.00 0.00 0.00 0.00 0.00 0.01 0.01 0.01 0.01 0.01 0.01 0.01 0.02 0.02 0.01 0.01 0.00 0.00 0.03 0.07 0.06 0.04 0.06
0.00 0.00 0.00 0.00 0.00 0.00 0.00 0.00 0.00 0.00 0.00 0.00 0.00 0.00 0.00 0.00 0.00 0.00 0.00 0.00 0.00 0.00 0.00 0.00 0.00 0.00 0.00 0.00 0.01 0.01 0.01 0.01 0.01 0.00 0.00 0.00 0.00 0.00 0.02 0.06 0.09 0.07 0.05
0.00 0.00 0.00 0.00 0.00 0.00 0.00 0.00 0.00 0.00 0.00 0.00 0.00 0.00 0.00 0.00 0.00 0.00 0.00 0.00 0.00 0.00 0.00 0.00 0.00 0.00 0.00 0.00 0.00 0.01 0.01 0.01 0.01 0.00 0.00 0.00 0.00 0.00 0.01 0.05 0.10 0.09 0.07
0.00 0.00 0.00 0.00 0.00 0.00 0.00 0.00 0.00 0.00 0.00 0.00 0.00 0.00 0.00 0.00 0.00 0.00 0.00 0.00 0.00 0.00 0.00 0.00 0.00 0.00 0.00 0.00 0.00 0.00 0.00 0.00 0.00 0.00 0.00 0.00 0.00 0.01 0.02 0.06 0.12 0.12 0.11
0.00 0.00 0.00 0.00 0.00 0.00 0.00 0.00 0.00 0.00 0.00 0.00 0.00 0.00 0.00 0.00 0.00 0.00 0.00 0.00 0.00 0.00 0.00 0.00 0.00 0.00 0.00 0.00 0.00 0.00 0.00 0.00 0.00 0.00 0.00 0.00 0.00 0.02 0.05 0.08 0.13 0.14 0.14
0.00 0.00 0.00 0.00 0.00 0.00 0.00 0.00 0.00 0.00 0.00 0.00 0.00 0.00 0.00 0.00 0.00 0.00 0.00 0.00 0.00 0.00 0.00 0.00 0.00 0.00 0.00 0.00 0.00 0.00 0.00 0.00 0.00 0.00 0.00 0.00 0.00 0.04 0.08 0.10 0.13 0.16 0.17
0.00 0.00 0.00 0.00 0.00 0.00 0.00 0.00 0.00 0.00 0.00 0.00 0.00 0.00 0.00 0.00 0.00 0.00 0.00 0.00 0.00 0.00 0.00 0.00 0.00 0.00 0.00 0.00 0.00 0.00 0.00 0.00 0.00 0.00 0.00 0.00 0.01 0.04 0.09 0.12 0.14 0.16 0.19
0.00 0.00 0.00 0.00 0.00 0.00 0.00 0.00 0.00 0.00 0.00 0.00 0.00 0.00 0.00 0.00 0.00 0.00 0.00 0.00 0.00 0.00 0.00 0.00 0.00 0.00 0.00 0.00 0.00 0.00 0.00 0.00 0.00 0.00 0.00 0.00 0.01 0.03 0.08 0.11 0.13 0.16 0.21
0.00 0.00 0.00 0.00 0.00 0.00 0.00 0.00 0.00 0.00 0.00 0.00 0.00 0.00 0.00 0.00 0.00 0.00 0.00 0.00 0.00 0.00 0.00 0.00 0.00 0.00 0.00 0.00 0.00 0.00 0.00 0.00 0.00 0.00 0.00 0.00 0.00 0.01 0.04 0.08 0.10 0.15 0.20
0.00 0.00 0.00 0.00 0.00 0.00 0.00 0.00 0.00 0.00 0.00 0.00 0.00 0.00 0.00 0.00 0.00 0.00 0.00 0.00 0.00 0.00 0.00 0.00 0.00 0.00 0.00 0.00 0.00 0.00 0.00 0.00 0.00 0.00 0.00 0.00 0.00 0.00 0.01 0.04 0.08 0.12 0.19
0.00 0.00 0.00 0.00 0.00 0.00 0.00 0.00 0.00 0.00 0.00 0.00 0.00 0.00 0.00 0.00 0.00 0.00 0.00 0.00 0.00 0.00 0.00 0.00 0.00 0.00 0.00 0.00 0.00 0.00 0.00 0.00 0.00 0.00 0.00 0.00 0.00 0.00 0.00 0.01 0.04 0.10 0.18
0.00 0.00 0.00 0.00 0.00 0.00 0.00 0.00 0.00 0.00 0.00 0.00 0.00 0.00 0.00 0.00 0.00 0.00 0.00 0.00 0.00 0.00 0.00 0.00 0.00 0.00 0.00 0.00 0.00 0.00 0.00 0.00 0.00 0.00 0.00 0.00 0.00 0.00 0.00 0.00 0.01 0.08 0.17
0.00 0.00 0.00 0.00 0.00 0.00 0.00 0.00 0.00 0.00 0.00 0.00 0.00 0.00 0.00 0.00 0.00 0.00 0.00 0.00 0.00 0.00 0.00 0.00 0.00 0.00 0.00 0.00 0.00 0.00 0.00 0.00 0.00 0.00 0.00 0.00 0.00 0.00 0.00 0.00 0.00 0.03 0.13
0.00 0.00 0.00 0.00 0.00 0.00 0.00 0.00 0.00 0.00 0.00 0.00 0.00 0.00 0.00 0.00 0.00 0.00 0.00 0.00 0.00 0.00 0.00 0.00 0.00 0.00 0.00 0.00 0.00 0.00 0.00 0.00 0.00 0.00 0.00 0.00 0.00 0.00 0.00 0.01 0.01 0.01 0.06
0.00 0.00 0.00 0.00 0.00 0.00 0.00 0.00 0.00 0.00 0.00 0.00 0.00 0.00 0.00 0.00 0.00 0.00 0.00 0.00 0.00 0.00 0.00 0.00 0.00 0.00 0.00 0.00 0.00 0.00 0.00 0.00 0.00 0.00 0.00 0.00 0.00 0.00 0.00 0.01 0.01 0.01 0.02
0.00 0.00 0.00 0.00 0.00 0.00 0.00 0.00 0.00 0.00 0.00 0.00 0.00 0.00 0.00 0.00 0.00 0.00 0.00 0.00 0.00 0.00 0.00 0.00 0.00 0.00 0.00 0.00 0.00 0.00 0.00 0.00 0.00 0.00 0.00 0.00 0.00 0.00 0.00 0.00 0.01 0.02 0.02
0.00 0.00 0.00 0.00 0.00 0.00 0.00 0.00 0.00 0.00 0.00 0.00 0.00 0.00 0.00 0.00 0.00 0.00 0.00 0.00 0.00 0.00 0.00 0.00 0.00 0.00 0.00 0.00 0.00 0.00 0.00 0.00 0.00 0.00 0.00 0.00 0.00 0.00 0.00 0.00 0.01 0.02 0.03
0.00 0.00 0.00 0.00 0.00 0.00 0.00 0.00 0.00 0.00 0.00 0.00 0.00 0.00 0.00 0.00 0.00 0.00 0.00 0.00 0.00 0.00 0.00 0.00 0.00 0.00 0.00 0.00 0.01 0.03 0.01 0.00 0.00 0.00 0.00 0.00 0.00 0.00 0.00 0.00 0.01 0.03 0.04
0.00 0.00 0.00 0.00 0.00 0.00 0.00 0.00 0.00 0.00 0.00 0.00 0.00 0.00 0.00 0.00 0.00 0.00 0.00 0.00 0.00 0.00 0.00 0.00 0.00 0.00 0.01 0.00 0.01 0.06 0.08 0.04 0.01 0.00 0.00 0.00 0.00 0.00 0.00 0.00 0.01 0.02 0.05
0.00 0.00 0.00 0.00 0.00 0.00 0.00 0.00 0.00 0.00 0.00 0.00 0.00 0.00 0.00 0.00 0.00 0.00 0.00 0.00 0.00 0.00 0.00 0.00 0.00 0.00 0.01 0.01 0.01 0.02 0.06 0.08 0.07 0.03 0.00 0.00 0.00 0.00 0.00 0.00 0.00 0.01 0.03
0.00 0.00 0.00 0.00 0.00 0.00 0.00 0.00 0.00 0.00 0.00 0.00 0.00 0.00 0.00 0.00 0.00 0.00 0.00 0.00 0.00 0.00 0.00 0.00 0.00 0.00 0.00 0.01 0.02 0.02 0.02 0.02 0.05 0.06 0.02 0.00 0.00 0.00 0.00 0.00 0.00 0.01 0.02
0.00 0.00 0.00 0.00 0.00 0.00 0.00 0.00 0.00 0.00 0.00 0.00 0.00 0.00 0.00 0.00 0.00 0.00 0.00 0.00 0.00 0.00 0.00 0.00 0.00 0.00 0.00 0.01 0.02 0.03 0.05 0.06 0.04 0.04 0.03 0.01 0.00 0.00 0.00 0.00 0.00 0.00 0.01
MSLP
1032.15 1031.44 1030.47 1029.41 1028.40 1027.54 1026.89 1026.43 1026.09 1025.78 1025.42 1024.99 1024.47 1023.91 1023.37 1022.89 1022.49 1022.18 1021.91 1021.63 1021.28 1020.85 1020.34 1019.77 1019.18 1018.62 1018.13 1017.72 1017.38 1017.08 1016.81 1016.54 1016.29 1016.05 1015.86 1015.73 1015.66 1015.64 1015.65 1015.66 1015.65 1015.61 1015.54
1032.77 1031.96 1030.93 1029.84 1028.84 1028.01 1027.40 1026.97 1026.65 1026.35 1026.00 1025.57 1025.08 1024.55 1024.04 1023.60 1023.24 1022.94 1022.67 1022.37 1022.00 1021.53 1020.97 1020.36 1019.73 1019.13 1018.59 1018.11 1017.69 1017.29 1016.93 1016.57 1016.23 1015.94 1015.71 1015.57 1015.51 1015.51 1015.54 1015.58 1015.59 1015.56 1015.51
1033.32 1032.42 1031.34 1030.25 1029.27 1028.48 1027.92 1027.52 1027.22 1026.94 1026.60 1026.18 1025.70 1025.19 1024.71 1024.29 1023.93 1023.63 1023.34 1023.01 1022.59 1022.09 1021.50 1020.86 1020.21 1019.59 1019.02 1018.51 1018.03 1017.57 1017.13 1016.68 1016.27 1015.91 1015.63 1015.44 1015.36 1015.36 1015.40 1015.45 1015.48 1015.47 1015.43
1033.78 1032.83 1031.73 1030.66 1029.73 1029.00 1028.49 1028.13 1027.86 1027.58 1027.24 1026.82 1026.34 1025.84 1025.36 1024.93 1024.57 1024.24 1023.91 1023.53 1023.06 1022.52 1021.90 1021.25 1020.60 1019.99 1019.43 1018.91 1018.41 1017.92 1017.42 1016.91 1016.42 1015.98 1015.63 1015.38 1015.25 1015.21 1015.23 1015.27 1015.31 1015.31 1015.30
1034.13 1033.17 1032.11 1031.10 1030.25 1029.60 1029.15 1028.83 1028.56 1028.28 1027.92 1027.48 1026.99 1026.47 1025.98 1025.54 1025.15 1024.78 1024.39 1023.96 1023.45 1022.86 1022.22 1021.57 1020.94 1020.36 1019.83 1019.33 1018.84 1018.34 1017.80 1017.24 1016.68 1016.17 1015.73 1015.40 1015.18 1015.07 1015.04 1015.05 1015.07 1015.09 1015.09
1034.38 1033.46 1032.48 1031.58 1030.84 1030.29 1029.90 1029.61 1029.34 1029.03 1028.64 1028.16 1027.64 1027.10 1026.59 1026.13 1025.70 1025.29 1024.85 1024.36 1023.80 1023.18 1022.53 1021.88 1021.27 1020.73 1020.23 1019.76 1019.29 1018.79 1018.24 1017.65 1017.03 1016.44 1015.91 1015.48 1015.16 1014.95 1014.83 1014.78 1014.77 1014.77 1014.80
1034.55 1033.72 1032.87 1032.11 1031.51 1031.06 1030.73 1030.45 1030.17 1029.81 1029.37 1028.85 1028.29 1027.74 1027.21 1026.72 1026.27 1025.82 1025.33 1024.79 1024.19 1023.54 1022.87 1022.22 1021.63 1021.11 1020.64 1020.20 1019.76 1019.26 1018.71 1018.09 1017.43 1016.77 1016.15 1015.61 1015.18 1014.85 1014.62 1014.48 1014.40 1014.39 1014.42
1034.68 1033.97 1033.28 1032.69 1032.23 1031.88 1031.59 1031.32 1031.00 1030.60 1030.10 1029.54 1028.96 1028.38 1027.85 1027.35 1026.88 1026.40 1025.88 1025.30 1024.66 1023.97 1023.29 1022.63 1022.04 1021.53 1021.07 1020.64 1020.20 1019.71 1019.14 1018.51 1017.82 1017.11 1016.41 1015.78 1015.23 1014.77 1014.42 1014.17 1014.01 1013.93 1013.95
1034.79 1034.24 1033.72 1033.29 1032.96 1032.70 1032.45 1032.17 1031.80 1031.35 1030.81 1030.22 1029.62 1029.05 1028.52 1028.02 1027.55 1027.05 1026.50 1025.89 1025.21 1024.50 1023.78 1023.11 1022.50 1021.97 1021.50 1021.06 1020.60 1020.10 1019.53 1018.88 1018.17 1017.42 1016.68 1015.97 1015.31 1014.74 1014.26 1013.88 1013.60 1013.45 1013.41
1034.93 1034.53 1034.18 1033.90 1033.68 1033.47 1033.24 1032.93 1032.53 1032.03 1031.46 1030.85 1030.26 1029.71 1029.20 1028.72 1028.24 1027.73 1027.16 1026.51 1025.81 1025.06 1024.33 1023.63 1023.00 1022.44 1021.93 1021.45 1020.96 1020.43 1019.84 1019.18 1018.46 1017.70 1016.92 1016.16 1015.43 1014.75 1014.15 1013.63 1013.24 1012.98 1012.86
1035.10 1034.84 1034.64 1034.48 1034.33 1034.16 1033.92 1033.58 1033.13 1032.61 1032.02 1031.43 1030.86 1030.34 1029.86 1029.40 1028.92 1028.40 1027.80 1027.13 1026.39 1025.62 1024.87 1024.15 1023.49 1022.89 1022.34 1021.81 1021.27 1020.70 1020.07 1019.40 1018.67 1017.91 1017.13 1016.34 1015.56 1014.81 1014.10 1013.47 1012.94 1012.55 1012.33
1035.31 1035.18 1035.09 1035.01 1034.91 1034.73 1034.46 1034.08 1033.61 1033.06 1032.49 1031.93 1031.41 1030.93 1030.48 1030.02 1029.54 1028.99 1028.36 1027.66 1026.90 1026.12 1025.35 1024.62 1023.94 1023.31 1022.72 1022.13 1021.53 1020.90 1020.23 1019.53 1018.80 1018.05 1017.28 1016.49 1015.70 1014.89 1014.11 1013.37 1012.71 1012.20 1011.85
1035.56 1035.53 1035.51 1035.47 1035.37 1035.17 1034.86 1034.44 1033.93 1033.39 1032.85 1032.33 1031.86 1031.43 1031.00 1030.56 1030.05 1029.47 1028.80 1028.06 1027.29 1026.50 1025.74 1025.01 1024.33 1023.69 1023.05 1022.40 1021.73 1021.04 1020.31 1019.58 1018.83 1018.09 1017.34 1016.57 1015.78 1014.97 1014.13 1013.31 1012.56 1011.91 1011.43
1035.83 1035.87 1035.89 1035.86 1035.72 1035.47 1035.10 1034.64 1034.13 1033.60 1033.10 1032.64 1032.23 1031.84 1031.43 1030.97 1030.43 1029.81 1029.09 1028.32 1027.53 1026.76 1026.02 1025.32 1024.65 1024.00 1023.33 1022.62 1021.88 1021.10 1020.30 1019.51 1018.74 1018.00 1017.27 1016.53 1015.77 1014.97 1014.13 1013.27 1012.43 1011.68 1011.08
1036.09 1036.18 1036.21 1036.15 1035.97 1035.66 1035.23 1034.74 1034.22 1033.71 1033.26 1032.86 1032.50 1032.14 1031.74 1031.26 1030.68 1030.00 1029.25 1028.45 1027.66 1026.90 1026.19 1025.53 1024.89 1024.23 1023.53 1022.77 1021.95 1021.08 1020.19 1019.33 1018.51 1017.75 1017.04 1016.34 1015.62 1014.86 1014.04 1013.17 1012.30 1011.48 1010.77
1036.34 1036.45 1036.47 1036.37 1036.13 1035.76 1035.28 1034.76 1034.24 1033.76 1033.35 1033.01 1032.69 1032.35 1031.94 1031.43 1030.81 1030.08 1029.29 1028.47 1027.69 1026.96 1026.29 1025.66 1025.05 1024.40 1023.67 1022.84 1021.93 1020.95 1019.97 1019.01 1018.13 1017.34 1016.63 1015.96 1015.30 1014.60 1013.83 1012.99 1012.11 1011.26 1010.49
1036.55 1036.67 1036.67 1036.53 1036.23 1035.80 1035.29 1034.74 1034.23 1033.78 1033.41 1033.10 1032.80 1032.47 1032.05 1031.51 1030.84 1030.08 1029.26 1028.44 1027.67 1026.97 1026.34 1025.75 1025.15 1024.49 1023.73 1022.83 1021.83 1020.74 1019.64 1018.59 1017.63 1016.80 1016.08 1015.44 1014.83 1014.19 1013.49 1012.71 1011.87 1011.01 1010.20
1036.71 1036.83 1036.82 1036.63 1036.29 1035.82 1035.29 1034.74 1034.23 1033.80 1033.46 1033.16 1032.87 1032.52 1032.08 1031.50 1030.81 1030.02 1029.19 1028.38 1027.64 1026.97 1026.37 1025.81 1025.22 1024.54 1023.73 1022.77 1021.67 1020.48 1019.27 1018.12 1017.09 1016.20 1015.47 1014.84 1014.27 1013.70 1013.07 1012.37 1011.57 1010.74 1009.92
1036.83 1036.94 1036.91 1036.70 1036.33 1035.85 1035.31 1034.77 1034.27 1033.85 1033.50 1033.20 1032.89 1032.52 1032.04 1031.44 1030.73 1029.94 1029.12 1028.33 1027.62 1026.99 1026.42 1025.87 1025.27 1024.57 1023.70 1022.67 1021.49 1020.22 1018.93 1017.70 1016.60 1015.66 1014.90 1014.28 1013.74 1013.22 1012.65 1012.01 1011.27 1010.47 1009.65
1036.91 1037.01 1036.96 1036.74 1036.37 1035.90 1035.37 1034.84 1034.35 1033.93 1033.57 1033.23 1032.88 1032.46 1031.95 1031.32 1030.61 1029.83 1029.04 1028.29 1027.62 1027.02 1026.47 1025.92 1025.31 1024.58 1023.67 1022.59 1021.36 1020.04 1018.69 1017.41 1016.27 1015.30 1014.51 1013.88 1013.34 1012.84 1012.31 1011.71 1011.02 1010.24 1009.43
1036.95 1037.04 1036.98 1036.77 1036.41 1035.96 1035.46 1034.95 1034.47 1034.04 1033.64 1033.25 1032.84 1032.37 1031.81 1031.16 1030.44 1029.69 1028.94 1028.24 1027.61 1027.04 1026.51 1025.96 1025.34 1024.58 1023.66 1022.56 1021.31 1019.98 1018.63 1017.34 1016.17 1015.18 1014.37 1013.71 1013.15 1012.64 1012.11 1011.52 1010.85 1010.09 1009.29
1036.96 1037.03 1036.97 1036.77 1036.45 1036.03 1035.57 1035.09 1034.62 1034.17 1033.72 1033.27 1032.78 1032.24 1031.63 1030.96 1030.24 1029.51 1028.81 1028.16 1027.57 1027.02 1026.50 1025.95 1025.32 1024.57 1023.65 1022.57 1021.35 1020.06 1018.75 1017.49 1016.35 1015.35 1014.51 1013.81 1013.21 1012.65 1012.09 1011.47 1010.79 1010.03 1009.22
1036.96 1037.01 1036.94 1036.75 1036.46 1036.09 1035.68 1035.23 1034.77 1034.30 1033.80 1033.28 1032.71 1032.09 1031.42 1030.72 1030.00 1029.29 1028.62 1028.01 1027.44 1026.92 1026.41 1025.86 1025.23 1024.49 1023.61 1022.58 1021.45 1020.25 1019.02 1017.84 1016.74 1015.76 1014.90 1014.14 1013.47 1012.84 1012.21 1011.54 1010.82 1010.04 1009.22
1036.96 1036.98 1036.89 1036.70 1036.44 1036.13 1035.76 1035.35 1034.90 1034.41 1033.87 1033.28 1032.63 1031.94 1031.21 1030.46 1029.72 1029.02 1028.36 1027.76 1027.21 1026.69 1026.18 1025.63 1025.01 1024.30 1023.47 1022.54 1021.52 1020.44 1019.34 1018.26 1017.23 1016.27 1015.39 1014.59 1013.84 1013.11 1012.39 1011.65 1010.88 1010.08 1009.25
1036.99 1036.95 1036.83 1036.64 1036.40 1036.12 1035.79 1035.42 1034.99 1034.49 1033.92 1033.27 1032.55 1031.79 1031.00 1030.20 1029.43 1028.70 1028.03 1027.42 1026.85 1026.31 1025.77 1025.21 1024.61 1023.93 1023.18 1022.35 1021.46 1020.53 1019.57 1018.61 1017.66 1016.74 1015.85 1015.00 1014.17 1013.35 1012.54 1011.73 1010.91 1010.08 1009.25
1037.05 1036.95 1036.78 1036.57 1036.33 1036.06 1035.77 1035.43 1035.02 1034.53 1033.94 1033.25 1032.48 1031.66 1030.81 1029.95 1029.13 1028.35 1027.64 1026.97 1026.36 1025.77 1025.19 1024.60 1023.99 1023.35 1022.67 1021.95 1021.20 1020.41 1019.59 1018.75 1017.89 1017.02 1016.13 1015.23 1014.33 1013.44 1012.56 1011.69 1010.84 1010.00 1009.19
Thickness
5598 5603 5611 5617 5622 5626 5629 5633 5636 5639 5641 5644 5647 5650 5652 5655 5659 5662 5664 5668 5671 5675 5679 5683 5688 5692 5696 5700 5704 5708 5711 5714 5716 5717 5719 5720 5723 5725 5727 5728 5729 5730 5733
5592 5599 5607 5612 5616 5620 5623 5626 5628 5631 5633 5635 5638 5640 5642 5645 5648 5651 5653 5656 5660 5663 5667 5671 5676 5680 5685 5689 5694 5698 5703 5707 5711 5713 5715 5716 5718 5721 5723 5724 5726 5727 5728
5590 5596 5602 5607 5610 5613 5616 5618 5621 5622 5624 5626 5628 5630 5632 5635 5637 5640 5642 5645 5648 5652 5655 5659 5663 5668 5672 5677 5682 5687 5692 5698 5703 5707 5710 5712 5714 5716 5719 5720 5722 5723 5725
5587 5592 5597 5601 5604 5607 5609 5611 5612 5614 5615 5617 5618 5619 5621 5622 5625 5628 5630 5633 5636 5640 5643 5647 5651 5655 5659 5664 5669 5675 5681 5687 5693 5699 5703 5707 5710 5712 5715 5717 5718 5720 5721
5584 5589 5592 5595 5598 5600 5601 5602 5603 5604 5605 5606 5607 5607 5608 5609 5610 5613 5615 5618 5622 5626 5630 5634 5638 5642 5646 5651 5656 5661 5668 5674 5681 5688 5694 5699 5703 5706 5710 5713 5715 5716 5718
5581 5583 5585 5588 5589 5590 5591 5592 5592 5593 5593 5593 5593 5594 5594 5594 5595 5597 5599 5602 5605 5609 5614 5618 5622 5627 5632 5637 5642 5648 5654 5661 5668 5675 5683 5689 5695 5699 5704 5708 5710 5712 5714
5576 5576 5576 5578 5579 5579 5580 5580 5579 5579 5579 5579 5578 5578 5578 5577 5578 5580 5581 5583 5587 5591 5595 5600 5605 5610 5616 5621 5627 5633 5640 5647 5655 5662 5670 5678 5685 5691 5697 5702 5706 5708 5710
5569 5568 5568 5568 5568 5568 5568 5567 5565 5565 5564 5563 5562 5561 5559 5558 5559 5560 5560 5562 5566 5570 5574 5579 5584 5591 5597 5603 5609 5616 5624 5631 5640 5646 5655 5664 5673 5682 5689 5695 5700 5703 5706
5562 5561 5559 5558 5557 5555 5554 5553 5550 5549 5547 5544 5542 5541 5539 5538 5537 5538 5538 5541 5543 5546 5550 5555 5561 5568 5575 5582 5589 5597 5605 5614 5622 5630 5639 5649 5659 5669 5679 5686 5692 5697 5701
5556 5553 5550 5547 5545 5543 5540 5537 5534 5532 5529 5526 5523 5521 5519 5516 5515 5515 5514 5517 5519 5521 5525 5528 5534 5542 5550 5558 5566 5574 5585 5594 5602 5612 5623 5633 5643 5653 5665 5675 5683 5689 5694
5549 5544 5540 5536 5533 5530 5527 5522 5518 5514 5510 5507 5503 5500 5497 5494 5492 5491 5490 5491 5492 5494 5497 5500 5506 5514 5522 5531 5540 5550 5561 5570 5580 5593 5605 5616 5626 5637 5649 5661 5672 5680 5687
5539 5534 5529 5525 5522 5518 5514 5509 5503 5498 5492 5487 5482 5478 5474 5470 5466 5464 5463 5463 5463 5464 5466 5470 5475 5482 5490 5501 5511 5522 5534 5546 5558 5571 5585 5597 5608 5621 5633 5646 5658 5668 5678
5528 5524 5519 5514 5510 5506 5500 5495 5488 5481 5475 5468 5461 5455 5449 5444 5439 5435 5433 5432 5431 5431 5432 5436 5441 5448 5456 5467 5480 5492 5506 5519 5533 5547 5563 5576 5590 5604 5617 5630 5643 5656 5667
5520 5515 5510 5504 5499 5492 5485 5478 5470 5463 5455 5446 5438 5430 5423 5416 5410 5404 5399 5397 5396 5396 5397 5400 5405 5413 5422 5432 5445 5461 5476 5490 5507 5523 5540 5556 5571 5585 5599 5613 5628 5642 5655
5512 5505 5500 5493 5486 5478 5470 5461 5452 5442 5432 5422 5412 5402 5393 5386 5379 5373 5368 5364 5362 5362 5364 5368 5372 5380 5389 5399 5412 5427 5444 5461 5479 5496 5516 5532 5549 5566 5582 5597 5612 5627 5642
5502 5495 5489 5481 5472 5463 5453 5443 5432 5421 5410 5398 5386 5376 5365 5356 5349 5343 5339 5335 5333 5331 5332 5336 5341 5350 5358 5367 5380 5393 5411 5430 5451 5469 5489 5508 5527 5545 5563 5580 5596 5612 5628
5492 5483 5475 5468 5457 5447 5436 5424 5411 5399 5387 5375 5363 5351 5340 5331 5323 5317 5312 5309 5306 5305 5306 5309 5315 5321 5329 5339 5352 5365 5381 5401 5421 5441 5461 5482 5503 5523 5542 5561 5580 5597 5614
5481 5471 5462 5452 5442 5431 5419 5405 5392 5378 5365 5352 5340 5329 5318 5308 5301 5295 5290 5287 5284 5284 5284 5286 5292 5296 5303 5313 5326 5340 5356 5374 5393 5412 5434 5456 5478 5500 5520 5541 5561 5580 5599
5470 5459 5449 5438 5428 5416 5402 5388 5373 5359 5345 5331 5319 5308 5298 5289 5281 5275 5271 5269 5266 5266 5266 5267 5271 5274 5281 5290 5302 5318 5334 5349 5368 5387 5407 5430 5452 5475 5497 5519 5542 5563 5583
5459 5447 5436 5425 5414 5401 5387 5373 5357 5341 5327 5313 5301 5289 5279 5270 5263 5258 5256 5253 5251 5251 5251 5251 5253 5256 5261 5268 5281 5296 5312 5329 5347 5364 5383 5404 5425 5448 5473 5496 5520 5543 5565
5448 5436 5425 5413 5401 5388 5373 5358 5343 5329 5314 5300 5286 5272 5262 5253 5247 5243 5240 5237 5235 5234 5234 5234 5236 5241 5245 5250 5260 5277 5297 5313 5329 5344 5360 5378 5398 5422 5447 5472 5496 5521 5544
5438 5425 5414 5401 5387 5372 5355 5339 5325 5311 5298 5285 5271 5258 5247 5239 5233 5228 5224 5220 5217 5216 5215 5215 5216 5222 5228 5229 5235 5251 5275 5295 5308 5322 5337 5354 5374 5396 5421 5447 5472 5499 5523
5429 5415 5403 5388 5373 5357 5340 5325 5312 5301 5287 5274 5262 5249 5237 5227 5219 5212 5206 5200 5196 5193 5192 5193 5195 5200 5207 5213 5216 5224 5243 5265 5276 5300 5315 5332 5350 5371 5395 5422 5450 5477 5503
5420 5405 5391 5376 5360 5343 5327 5312 5296 5285 5272 5259 5246 5236 5225 5214 5205 5195 5187 5178 5171 5167 5165 5166 5171 5175 5184 5194 5201 5209 5219 5231 5248 5277 5295 5310 5328 5348 5371 5399 5427 5456 5483
5410 5395 5380 5364 5348 5332 5315 5299 5285 5271 5257 5245 5234 5224 5214 5203 5191 5178 5166 5155 5145 5139 5137 5139 5144 5152 5161 5173 5184 5194 5205 5218 5231 5249 5274 5292 5309 5328 5350 5377 5406 5435 5463
5400 5385 5370 5354 5338 5322 5305 5290 5276 5261 5248 5236 5225 5214 5204 5191 5177 5162 5146 5132 5121 5115 5113 5115 5121 5131 5142 5155 5168 5180 5192 5205 5219 5233 5253 5271 5290 5312 5334 5359 5387 5416 5444